Location: Rounton
(54.4000°N, 1.3500°W)
Time: 17:59:03
(UTC+01:00)

S-56A Canister/Altair - Pass Details

Date: 12 September 2024
Orbit: 636 x 2487 km, 38.9° (Epoch: 06 October)

Event Time Altitude Azimuth Distance (km) Brightness Sun altitude
Rises 00:43:56 0° 260° (W) 4,372 11.4 -31.4°
Reaches altitude 10° 00:47:01 10° 249° (WSW) 3,657 10.8 -31.5°
Enters shadow 00:47:24 11° 247° (WSW) 3,581 10.7 -31.5°
Maximum altitude 00:54:57 29° 195° (SSW) 3,015 - -31.5°
Drops below altitude 10° 01:05:18 10° 143° (SE) 4,835 - -31.5°
Sets 01:10:10 0° 134° (SE) 6,017 - -31.5°
